VE2CSM-13 Weather Reports


time (UTC)temp
C
wind
direction
speed
KPH
gust
KPH
rain 1hr
cm
rain 24hr
cm
rain mn
cm
humidity
%
barometer
mb
20260502181703 8 270 1.6 4.8 0.00 0.00 0.00 56 1021.7
20260502161702 8 120 1.6 6.4 0.00 0.00 0.00 49 1022.4
20260502151702 7 73 3.2 6.4 0.00 0.00 0.00 44 1023.0
20260502121702 2 63 1.6 3.2 0.00 0.00 0.00 81 1023.9
20260502114702 1 37 0.0 1.6 0.00 0.00 0.00 83 1023.9
20260502111702 0 47 1.6 4.8 0.00 0.00 0.00 84 1023.8
20260502104701 0 322 0.0 4.8 0.00 0.00 0.00 87 1023.6
20260502101702 -1 0 0.0 0.0 0.00 0.00 0.00 91 1023.5
20260502071303 -2 0 0.0 0.0 0.00 0.00 0.00 90 1022.9
20260502065702 -2 0 0.0 0.0 0.00 0.00 0.00 90 1023.0
20260502064902 -2 0 0.0 0.0 0.00 0.00 0.00 90 1022.8
20260502064102 -2 0 0.0 0.0 0.00 0.00 0.00 90 1023.0
20260502063302 -2 0 0.0 0.0 0.00 0.00 0.00 90 1022.7
20260502062902 -2 0 0.0 0.0 0.00 0.00 0.00 89 1022.7
20260502062103 -1 0 0.0 0.0 0.00 0.00 0.00 89 1022.7
20260502061902 -1 0 0.0 0.0 0.00 0.00 0.00 89 1022.7
20260502061702 -1 0 0.0 0.0 0.00 0.00 0.00 89 1022.7
20260502061303 -1 0 0.0 0.0 0.00 0.00 0.00 89 1022.7
20260502060902 -1 0 0.0 0.0 0.00 0.00 0.00 89 1022.7
20260502060702 -1 0 0.0 0.0 0.00 0.00 0.00 89 1022.8
20260502060503 -1 0 0.0 0.0 0.00 0.00 0.00 89 1022.8
20260502060402 -1 0 0.0 0.0 0.00 0.00 0.00 89 1022.8
20260502060303 -1 0 0.0 0.0 0.00 0.00 0.00 89 1022.8
20260502060202 -1 0 0.0 0.0 0.00 0.00 0.00 89 1022.8
20260502055444 -1 0 0.0 0.0 0.00 0.00 0.00 89 1022.8
20260502045426 -1 0 0.0 0.0 0.00 0.00 0.00 87 1022.8
20260502035425 0 0 0.0 0.0 0.00 0.00 0.00 85 1022.8
20260502025425 0 290 1.6 3.2 0.00 0.00 0.00 80 1022.5
20260502015431 1 283 0.0 1.6 0.00 0.03 0.00 82 1022.8
20260502005426 2 0 0.0 0.0 0.00 0.13 0.00 76 1022.2
20260502002425 4 260 1.6 1.6 0.00 0.18 0.00 68 1022.0
20260501235425 6 14 3.2 11.3 0.00 0.28 0.00 58 1021.6
20260501232425 6 352 3.2 11.3 0.00 0.38 0.00 54 1021.5
20260501225558 7 305 1.6 6.4 0.00 0.48 0.00 56 1021.4
20260501215425 7 286 3.2 6.4 0.00 0.61 0.00 54 1021.4
20260501212425 7 301 3.2 9.7 0.00 0.71 0.00 53 1021.1
20260501205426 7 290 3.2 11.3 0.00 0.84 0.00 54 1020.8
20260501195430 7 279 4.8 11.3 0.00 1.02 0.00 54 1020.3
20260501185425 8 266 4.8 11.3 0.00 1.14 0.00 57 1020.1